Location: Joffre
(52.3362°N, 113.5373°W)
Time: 12:32:52
(UTC+00:00)

N. Korean satellite - Pass Details

Date: 07 December 2021
Orbit: 447 x 490 km, 97.3° (Epoch: 27 January)

Event Time Altitude Azimuth Distance (km) Brightness Sun altitude
Rises 14:19:29 0° 358° (N) 2,471 9.9 -10.0°
Reaches altitude 10° 14:22:15 10° 333° (NNW) 1,589 8.7 -9.6°
Maximum altitude 14:24:07 14° 300° (WNW) 1,346 8.1 -9.4°
Drops below altitude 10° 14:25:58 10° 266° (W) 1,580 8.6 -9.1°
Sets 14:28:42 0° 241° (WSW) 2,447 9.8 -8.8°
